When you browse on this site, cookies collect data to enhance your experience and personalize the content and advertising you see.
Visit our Privacy Policy to learn more. By continuing to use the site, you agree to this use of cookies and data.
  • In Lithuania
  • List of Countries
  • For 7 days
  • Water Temperature
  • Weather Map
  • Weather Widgets
  • user-avatar
    Login

    Hourly Weather San Juan

    Today, 23 February, Sunday

    Time Temperature Precipitation Wind Pressure Humidity
    00:00 +21°C° 0 mm 3 mps 707 mmHg 39%
    01:00 +21°C° 0 mm 3 mps 706 mmHg 41%
    02:00 +20°C° 0 mm 2 mps 706 mmHg 42%
    03:00 +20°C° 0 mm 2 mps 706 mmHg 44%
    04:00 +19°C° 0 mm 2 mps 705 mmHg 45%
    05:00 +20°C° 0 mm 2 mps 706 mmHg 43%
    06:00 +22°C° 0 mm 1 mps 706 mmHg 40%
    07:00 +23°C° 0 mm 1 mps 706 mmHg 38%
    08:00 +25°C° 0 mm 2 mps 706 mmHg 35%
    09:00 +27°C° 0 mm 2 mps 706 mmHg 32%
    10:00 +28°C° 0 mm 2 mps 706 mmHg 28%
    11:00 +30°C° 0 mm 2 mps 705 mmHg 26%
    12:00 +31°C° 0 mm 2 mps 704 mmHg 24%
    13:00 +32°C° 0 mm 2 mps 704 mmHg 22%
    14:00 +34°C° 0 mm 2 mps 703 mmHg 21%
    15:00 +34°C° 0 mm 3 mps 703 mmHg 21%
    16:00 +35°C° 0 mm 3 mps 702 mmHg 20%
    17:00 +33°C° 0 mm 3 mps 702 mmHg 23%
    18:00 +31°C° 0 mm 3 mps 702 mmHg 27%
    19:00 +29°C° 0 mm 3 mps 703 mmHg 30%
    20:00 +28°C° 0 mm 2 mps 703 mmHg 33%
    21:00 +27°C° 0 mm 2 mps 703 mmHg 35%
    22:00 +26°C° 0 mm 1 mps 703 mmHg 38%
    23:00 +26°C° 0 mm 1 mps 703 mmHg 39%

    Tomorrow, 24 February, Monday

    Time Temperature Precipitation Wind Pressure Humidity
    00:00 +25°C° 0 mm 1 mps 702 mmHg 41%
    01:00 +25°C° 0 mm 2 mps 702 mmHg 42%
    02:00 +24°C° 0 mm 2 mps 701 mmHg 43%
    03:00 +24°C° 0 mm 2 mps 701 mmHg 44%
    04:00 +23°C° 0 mm 2 mps 701 mmHg 46%
    05:00 +24°C° 0 mm 1 mps 701 mmHg 42%
    06:00 +26°C° 0 mm 1 mps 701 mmHg 39%
    07:00 +27°C° 0 mm 1 mps 702 mmHg 36%
    08:00 +28°C° 0 mm 2 mps 702 mmHg 33%
    09:00 +30°C° 0 mm 2 mps 702 mmHg 30%
    10:00 +33°C° 0 mm 3 mps 702 mmHg 27%
    11:00 +34°C° 0 mm 4 mps 701 mmHg 25%
    12:00 +35°C° 0 mm 4 mps 700 mmHg 23%
    13:00 +36°C° 0 mm 5 mps 700 mmHg 21%
    14:00 +36°C° 0 mm 6 mps 699 mmHg 20%
    15:00 +36°C° 0 mm 6 mps 699 mmHg 20%
    16:00 +36°C° 0 mm 7 mps 699 mmHg 19%
    17:00 +35°C° 0 mm 7 mps 699 mmHg 21%
    18:00 +34°C° 0 mm 7 mps 700 mmHg 22%
    19:00 +32°C° 0 mm 7 mps 701 mmHg 24%
    20:00 +29°C° 0 mm 8 mps 702 mmHg 30%
    21:00 +27°C° 0 mm 10 mps 702 mmHg 35%
    22:00 +24°C° 0 mm 12 mps 703 mmHg 41%
    23:00 +23°C° 0 mm 10 mps 703 mmHg 44%

    Day after tomorrow, 25 February, Tuesday

    Time Temperature Precipitation Wind Pressure Humidity
    00:00 +22°C° 0 mm 8 mps 703 mmHg 46%
    01:00 +22°C° 0 mm 6 mps 703 mmHg 49%
    02:00 +21°C° 0 mm 5 mps 703 mmHg 50%
    03:00 +21°C° 0 mm 4 mps 704 mmHg 51%
    04:00 +21°C° 0 mm 3 mps 704 mmHg 52%
    05:00 +22°C° 0 mm 3 mps 705 mmHg 49%
    06:00 +22°C° 0 mm 3 mps 705 mmHg 47%
    07:00 +24°C° 0 mm 3 mps 706 mmHg 44%
    08:00 +26°C° 0 mm 4 mps 706 mmHg 40%
    09:00 +27°C° 0 mm 4 mps 706 mmHg 36%
    10:00 +29°C° 0 mm 5 mps 706 mmHg 32%
    11:00 +29°C° 0 mm 5 mps 706 mmHg 30%
    12:00 +30°C° 0 mm 4 mps 706 mmHg 28%
    13:00 +32°C° 0 mm 4 mps 705 mmHg 26%
    14:00 +33°C° 0 mm 4 mps 705 mmHg 25%
    15:00 +33°C° 0 mm 4 mps 705 mmHg 25%
    16:00 +33°C° 0 mm 5 mps 704 mmHg 24%
    17:00 +32°C° 0 mm 4 mps 705 mmHg 26%
    18:00 +30°C° 0 mm 3 mps 705 mmHg 27%
    19:00 +29°C° 0 mm 3 mps 706 mmHg 29%
    20:00 +28°C° 0 mm 3 mps 706 mmHg 29%
    21:00 +28°C° 0 mm 3 mps 707 mmHg 30%
    22:00 +27°C° 0 mm 3 mps 707 mmHg 30%
    23:00 +27°C° 0 mm 3 mps 707 mmHg 30%

    26 February, Wednesday

    Time Temperature Precipitation Wind Pressure Humidity
    00:00 +26°C° 0 mm 3 mps 707 mmHg 30%
    01:00 +25°C° 0 mm 4 mps 707 mmHg 29%
    02:00 +25°C° 0 mm 3 mps 707 mmHg 30%
    03:00 +24°C° 0 mm 3 mps 707 mmHg 31%
    04:00 +23°C° 0 mm 2 mps 706 mmHg 32%
    05:00 +24°C° 0 mm 3 mps 707 mmHg 31%
    06:00 +25°C° 0 mm 3 mps 707 mmHg 29%
    07:00 +25°C° 0 mm 4 mps 707 mmHg 28%
    08:00 +27°C° 0 mm 4 mps 707 mmHg 26%
    09:00 +28°C° 0 mm 4 mps 707 mmHg 24%
    10:00 +30°C° 0 mm 4 mps 707 mmHg 21%
    11:00 +32°C° 0 mm 4 mps 706 mmHg 21%
    12:00 +33°C° 0 mm 3 mps 706 mmHg 21%
    13:00 +34°C° 0 mm 3 mps 705 mmHg 20%
    14:00 +34°C° 0 mm 3 mps 705 mmHg 20%
    15:00 +35°C° 0 mm 2 mps 704 mmHg 20%
    16:00 +35°C° 0 mm 2 mps 704 mmHg 20%
    17:00 +34°C° 0 mm 2 mps 704 mmHg 23%
    18:00 +32°C° 0 mm 2 mps 705 mmHg 25%
    19:00 +30°C° 0 mm 3 mps 705 mmHg 27%
    20:00 +30°C° 0 mm 3 mps 705 mmHg 28%
    21:00 +30°C° 0 mm 4 mps 706 mmHg 30%
    22:00 +29°C° 0 mm 5 mps 706 mmHg 31%
    23:00 +29°C° 0 mm 5 mps 706 mmHg 31%

    27 February, Thursday

    Time Temperature Precipitation Wind Pressure Humidity
    00:00 +28°C° 0 mm 6 mps 705 mmHg 31%
    01:00 +27°C° 0 mm 6 mps 705 mmHg 30%
    02:00 +27°C° 0 mm 5 mps 705 mmHg 32%
    03:00 +26°C° 0 mm 4 mps 705 mmHg 34%
    04:00 +25°C° 0 mm 3 mps 705 mmHg 35%
    05:00 +26°C° 0 mm 3 mps 705 mmHg 34%
    06:00 +27°C° 0 mm 3 mps 706 mmHg 32%
    07:00 +27°C° 0 mm 3 mps 706 mmHg 30%
    08:00 +29°C° 0 mm 3 mps 706 mmHg 28%
    09:00 +32°C° 0 mm 4 mps 706 mmHg 26%
    10:00 +33°C° 0 mm 4 mps 706 mmHg 23%
    11:00 +34°C° 0 mm 3 mps 705 mmHg 22%
    12:00 +35°C° 0 mm 3 mps 704 mmHg 21%
    13:00 +36°C° 0 mm 3 mps 704 mmHg 20%
    14:00 +36°C° 0 mm 3 mps 703 mmHg 20%
    15:00 +36°C° 0 mm 3 mps 703 mmHg 20%
    16:00 +37°C° 0 mm 3 mps 702 mmHg 19%
    17:00 +35°C° 0 mm 3 mps 703 mmHg 22%
    18:00 +33°C° 0 mm 4 mps 703 mmHg 25%
    19:00 +30°C° 0 mm 4 mps 703 mmHg 28%
    20:00 +29°C° 0.6 mm 4 mps 704 mmHg 33%
    21:00 +28°C° 0.6 mm 4 mps 704 mmHg 37%
    22:00 +27°C° 0.6 mm 3 mps 704 mmHg 41%
    23:00 +27°C° 0.3 mm 3 mps 704 mmHg 42%

    28 February, Friday

    Time Temperature Precipitation Wind Pressure Humidity
    00:00 +26°C° 0.3 mm 2 mps 704 mmHg 43%
    01:00 +26°C° 0.3 mm 2 mps 704 mmHg 45%
    02:00 +25°C° 0 mm 1 mps 704 mmHg 45%
    03:00 +25°C° 0 mm 1 mps 704 mmHg 45%
    04:00 +25°C° 0 mm 1 mps 704 mmHg 45%
    05:00 +25°C° 0 mm 1 mps 704 mmHg 42%
    06:00 +26°C° 0 mm 2 mps 705 mmHg 38%
    07:00 +27°C° 0 mm 2 mps 705 mmHg 35%
    08:00 +29°C° 0 mm 2 mps 705 mmHg 32%
    09:00 +30°C° 0 mm 2 mps 705 mmHg 29%
    10:00 +32°C° 0 mm 2 mps 705 mmHg 26%
    11:00 +34°C° 0 mm 2 mps 705 mmHg 24%
    12:00 +35°C° 0 mm 3 mps 705 mmHg 22%
    13:00 +36°C° 0 mm 3 mps 704 mmHg 20%
    14:00 +36°C° 0 mm 4 mps 704 mmHg 19%
    15:00 +36°C° 0 mm 5 mps 704 mmHg 19%
    16:00 +36°C° 0 mm 6 mps 704 mmHg 18%
    17:00 +34°C° 0.1 mm 7 mps 704 mmHg 23%
    18:00 +32°C° 0.1 mm 8 mps 705 mmHg 28%
    19:00 +29°C° 0.1 mm 8 mps 705 mmHg 33%
    20:00 +28°C° 0.6 mm 8 mps 706 mmHg 40%
    21:00 +26°C° 0.6 mm 8 mps 707 mmHg 48%
    22:00 +24°C° 0.6 mm 9 mps 708 mmHg 55%
    23:00 +24°C° 0.5 mm 7 mps 708 mmHg 54%
    Show more